TDRS 8

Last updated on Thu Jul 03 2025 00:02:38 GMT+0000 (Coordinated Universal Time)

1 26388U 00034A 25183.08472407 -.00000201 00000+0 00000+0 0 9997 2 26388 12.1266 34.2006 0009029 13.8449 352.8416 1.00071672 91677
UTC large
Height (km)
Speed (km/s)
/
Latitude / Longitude
Inclination (degrees)
Orbital Period (minutes)
Azimuth
Elevation
Range (km)
Doppler Factor

Next 0 passes for location: London (51.5072 / 0.1276)

Sorry there are no passes over London.